BV5AB-33 Weather Reports


time (UTC)temp
C
wind
direction
speed
KPH
gust
KPH
rain 1hr
cm
rain 24hr
cm
rain mn
cm
humidity
%
barometer
mb
20260509090503 28 0 0.0 0.0 0.00 0.23 0.10 58 982.3
20260509085504 28 125 0.0 3.2 0.00 0.23 0.10 57 982.1
20260509085004 28 253 0.0 4.8 0.00 0.23 0.10 57 982.3
20260509084003 28 283 3.2 4.8 0.00 0.23 0.10 56 982.4
20260509083004 28 254 0.0 3.2 0.00 0.23 0.10 56 982.6
20260509082503 28 314 0.0 6.4 0.00 0.23 0.10 56 982.6
20260509082004 28 309 0.0 6.4 0.00 0.23 0.10 55 982.5
20260509081504 28 283 1.6 6.4 0.00 0.23 0.10 55 982.4
20260509081005 29 149 0.0 3.2 0.00 0.23 0.10 55 982.3
20260509080504 29 140 0.0 3.2 0.00 0.23 0.10 55 982.3
20260509080005 29 0 0.0 0.0 0.00 0.23 0.10 55 982.3
20260509075503 29 258 0.0 3.2 0.00 0.23 0.10 55 982.3
20260509075005 29 259 0.0 3.2 0.00 0.23 0.10 55 982.3
20260509074504 29 270 1.6 3.2 0.00 0.23 0.10 55 982.3
20260509074004 29 0 0.0 0.0 0.00 0.23 0.10 55 982.5
20260509073504 29 0 0.0 0.0 0.00 0.23 0.10 54 982.4
20260509073004 30 46 0.0 1.6 0.00 0.23 0.10 54 982.4
20260509072505 30 104 0.0 6.4 0.00 0.23 0.10 55 982.4
20260509072004 30 90 0.0 6.4 0.00 0.23 0.10 55 982.3
20260509071504 30 290 1.6 6.4 0.00 0.23 0.10 54 982.4
20260509071004 30 142 0.0 1.6 0.00 0.23 0.10 54 982.6
20260509070504 30 149 0.0 1.6 0.00 0.23 0.10 54 982.4
20260509070004 30 217 0.0 6.4 0.00 0.23 0.10 54 982.5
20260509065504 30 240 0.0 6.4 0.00 0.23 0.10 54 982.5
20260509065004 30 245 3.2 6.4 0.00 0.23 0.10 54 982.4
20260509064004 30 114 0.0 3.2 0.00 0.23 0.10 54 982.6
20260509063504 30 307 0.0 6.4 0.00 0.23 0.10 53 982.4
20260509063004 30 287 0.0 6.4 0.00 0.23 0.10 53 982.6
20260509062504 30 260 0.0 4.8 0.00 0.23 0.10 53 982.5
20260509062004 30 261 0.0 4.8 0.00 0.23 0.10 53 982.5
20260509061505 30 265 0.0 6.4 0.00 0.23 0.10 53 982.7
20260509061004 30 270 0.0 6.4 0.00 0.23 0.10 53 982.6
20260509060004 31 258 0.0 4.8 0.00 0.23 0.10 53 983.0
20260509055504 31 273 0.0 1.6 0.00 0.23 0.10 53 983.0
20260509054004 31 178 0.0 3.2 0.00 0.23 0.10 53 982.9
20260509053504 31 160 0.0 1.6 0.00 0.23 0.10 54 982.9
20260509053004 31 0 0.0 0.0 0.00 0.23 0.10 53 983.0
20260509052504 31 225 0.0 1.6 0.00 0.23 0.10 54 983.1
20260509052004 31 225 0.0 1.6 0.00 0.23 0.10 54 983.1
20260509051504 31 270 0.0 3.2 0.00 0.23 0.10 54 983.1
20260509051005 31 322 0.0 3.2 0.00 0.23 0.10 54 983.0
20260509050504 31 29 0.0 3.2 0.00 0.23 0.10 54 983.1
20260509045004 30 248 0.0 1.6 0.00 0.23 0.10 53 983.1
20260509044504 30 192 0.0 1.6 0.00 0.23 0.10 54 983.3
20260509044005 30 257 0.0 3.2 0.00 0.23 0.10 54 983.4
20260509043504 30 285 0.0 3.2 0.00 0.23 0.10 53 983.6
20260509043004 30 270 0.0 1.6 0.00 0.23 0.10 54 983.5
20260509042504 31 356 0.0 6.4 0.00 0.23 0.10 53 983.5
20260509042004 31 1 0.0 6.4 0.00 0.23 0.10 53 983.4
20260509041504 30 182 0.0 3.2 0.00 0.23 0.10 53 983.6
20260509040504 31 0 0.0 0.0 0.00 0.23 0.10 54 983.6
20260509040005 30 225 0.0 3.2 0.00 0.23 0.10 54 983.7
20260509035504 30 277 0.0 6.4 0.00 0.23 0.10 54 983.7
20260509035004 30 314 0.0 6.4 0.00 0.23 0.10 54 983.9
20260509034504 30 0 0.0 0.0 0.00 0.23 0.10 55 984.1
20260509034004 30 225 0.0 1.6 0.00 0.23 0.10 55 984.2
20260509033504 30 225 0.0 1.6 0.00 0.23 0.10 54 983.9
20260509033004 30 111 0.0 1.6 0.00 0.23 0.10 53 984.0
20260509032005 30 0 0.0 0.0 0.00 0.23 0.10 53 984.0
20260509031504 30 0 0.0 0.0 0.00 0.23 0.10 53 984.3
20260509031005 30 225 0.0 1.6 0.00 0.23 0.10 53 984.2
20260509030504 30 179 0.0 1.6 0.00 0.23 0.10 54 984.4
20260509030005 30 322 0.0 1.6 0.00 0.23 0.10 53 984.4
20260509025504 30 326 0.0 1.6 0.00 0.23 0.10 54 984.4
20260509025004 30 0 0.0 0.0 0.00 0.23 0.10 54 984.6
20260509024004 30 139 0.0 3.2 0.00 0.23 0.10 54 984.7
20260509023504 30 137 0.0 8.0 0.00 0.23 0.10 54 984.8
20260509023004 30 281 0.0 8.0 0.00 0.23 0.10 54 984.5
20260509022504 30 89 0.0 3.2 0.00 0.23 0.10 55 984.5
20260509022005 30 100 0.0 3.2 0.00 0.23 0.10 55 984.7
20260509021504 30 135 0.0 1.6 0.00 0.23 0.10 55 984.5
20260509020505 30 90 0.0 1.6 0.00 0.23 0.10 56 984.9
20260509020004 30 90 0.0 1.6 0.00 0.23 0.10 56 984.9
20260509015505 29 0 0.0 0.0 0.00 0.23 0.10 57 984.9
20260509015004 29 0 0.0 0.0 0.00 0.23 0.10 57 984.9
20260509014504 29 0 0.0 0.0 0.00 0.23 0.10 58 984.9
20260509014005 28 0 0.0 0.0 0.00 0.23 0.10 60 984.9
20260509013505 28 0 0.0 0.0 0.00 0.23 0.10 61 984.9
20260509013004 27 0 0.0 0.0 0.00 0.23 0.10 62 985.1
20260509012505 27 0 0.0 0.0 0.00 0.23 0.10 65 985.0
20260509012004 26 0 0.0 0.0 0.00 0.23 0.10 65 984.7
20260509011504 26 79 0.0 1.6 0.00 0.23 0.10 65 984.8
20260509010505 26 86 0.0 1.6 0.00 0.23 0.10 65 984.9
20260509010004 26 90 0.0 1.6 0.00 0.23 0.10 65 984.9
20260509005505 26 90 0.0 1.6 0.00 0.23 0.10 65 985.0
20260509005005 26 90 0.0 1.6 0.00 0.23 0.10 66 984.8
20260509004504 26 90 0.0 1.6 0.00 0.23 0.10 66 984.9
20260509003504 26 115 0.0 1.6 0.00 0.23 0.10 66 984.8
20260509003005 26 141 0.0 1.6 0.00 0.23 0.10 66 985.0
20260509002004 26 1 0.0 1.6 0.00 0.23 0.10 66 984.8
20260509001005 26 0 0.0 0.0 0.00 0.23 0.10 67 984.7
20260509000506 26 0 0.0 0.0 0.00 0.23 0.10 67 984.5
20260509000005 25 90 0.0 1.6 0.00 0.23 0.10 67 984.7
20260508234506 25 0 0.0 0.0 0.00 0.23 0.10 68 984.4
20260508234004 25 90 0.0 1.6 0.00 0.23 0.10 68 984.4
20260508233505 24 90 0.0 1.6 0.00 0.23 0.10 69 984.3
20260508233005 24 1 0.0 1.6 0.00 0.23 0.10 70 984.2
20260508232505 24 31 0.0 1.6 0.00 0.23 0.10 70 984.3
20260508231504 23 79 0.0 6.4 0.00 0.23 0.10 70 984.4
20260508231005 23 83 0.0 6.4 0.00 0.23 0.10 70 984.3
20260508230505 23 70 3.2 6.4 0.00 0.23 0.10 70 984.1
20260508230005 23 64 0.0 4.8 0.00 0.23 0.10 70 984.0
20260508225005 23 0 0.0 0.0 0.03 0.23 0.10 71 984.0
20260508224504 24 0 0.0 0.0 0.03 0.23 0.10 70 984.2
20260508224005 24 0 0.0 0.0 0.03 0.23 0.10 70 984.1
20260508223505 24 0 0.0 0.0 0.03 0.23 0.10 70 984.1
20260508223004 24 0 0.0 0.0 0.03 0.23 0.10 70 984.2
20260508222505 24 0 0.0 0.0 0.03 0.23 0.10 70 984.1
20260508222005 24 0 0.0 0.0 0.03 0.23 0.10 70 984.0
20260508221506 24 0 0.0 0.0 0.03 0.23 0.10 70 984.0
20260508221005 23 0 0.0 0.0 0.03 0.23 0.10 70 983.8
20260508220504 23 90 0.0 1.6 0.10 0.23 0.10 70 983.8
20260508220005 23 90 0.0 1.6 0.10 0.23 0.10 70 983.8
20260508214506 23 90 0.0 1.6 0.05 0.20 0.05 70 983.9
20260508214005 23 0 0.0 0.0 0.05 0.20 0.05 70 983.7
20260508213505 23 135 0.0 1.6 0.05 0.23 0.05 70 983.4
20260508212505 23 0 0.0 0.0 0.05 0.23 0.05 70 983.4
20260508212005 23 83 0.0 3.2 0.05 0.23 0.05 70 983.4
20260508211505 23 71 0.0 3.2 0.05 0.23 0.05 70 983.4
20260508211005 23 46 0.0 3.2 0.05 0.23 0.05 69 983.3
20260508210505 24 90 0.0 3.2 0.00 0.18 0.00 68 983.3
20260508210005 24 88 0.0 3.2 0.00 0.18 0.00 69 983.2
20260508205505 24 85 0.0 3.2 0.00 0.18 0.00 69 983.2
20260508205005 24 90 0.0 1.6 0.00 0.18 0.00 69 983.4
20260508204505 24 80 0.0 3.2 0.00 0.20 0.00 69 983.2
20260508204005 24 76 0.0 3.2 0.00 0.20 0.00 69 983.3
20260508203004 25 291 0.0 6.4 0.00 0.28 0.00 70 983.3
20260508202006 25 230 0.0 3.2 0.00 0.28 0.00 71 983.0
20260508201505 25 191 0.0 1.6 0.00 0.28 0.00 71 983.1
20260508201005 24 171 0.0 1.6 0.00 0.28 0.00 71 983.1
20260508200505 24 0 0.0 0.0 0.00 0.28 0.00 71 983.2
20260508200004 24 0 0.0 0.0 0.00 0.28 0.00 71 983.1
20260508195505 24 0 0.0 0.0 0.00 0.28 0.00 71 982.9
20260508194506 24 0 0.0 0.0 0.00 0.28 0.00 71 982.7
20260508194006 24 0 0.0 0.0 0.00 0.28 0.00 71 982.7
20260508193505 24 0 0.0 0.0 0.00 0.28 0.00 70 982.7
20260508193005 24 0 0.0 0.0 0.00 0.28 0.00 70 982.9
20260508192506 25 0 0.0 0.0 0.00 0.28 0.00 70 983.0
20260508192005 25 0 0.0 0.0 0.00 0.28 0.00 70 982.9
20260508191505 25 0 0.0 0.0 0.00 0.28 0.00 70 982.8
20260508191005 25 0 0.0 0.0 0.00 0.28 0.00 70 982.8
20260508190005 25 0 0.0 0.0 0.00 0.28 0.00 70 982.8
20260508185505 25 0 0.0 0.0 0.00 0.28 0.00 70 982.7
20260508184506 25 0 0.0 0.0 0.00 0.28 0.00 70 982.7
20260508184005 25 0 0.0 0.0 0.00 0.28 0.00 70 982.8
20260508183505 25 0 0.0 0.0 0.00 0.28 0.00 70 982.7
20260508182505 25 0 0.0 0.0 0.00 0.28 0.00 70 982.7
20260508182006 25 0 0.0 0.0 0.00 0.28 0.00 70 983.1
20260508181005 25 0 0.0 0.0 0.00 0.28 0.00 70 982.9
20260508180005 25 0 0.0 0.0 0.00 0.28 0.00 70 982.9
20260508175006 25 0 0.0 0.0 0.00 0.28 0.00 70 982.7
20260508174505 25 0 0.0 0.0 0.00 0.28 0.00 70 982.9
20260508174005 25 0 0.0 0.0 0.00 0.28 0.00 70 982.9
20260508173506 25 0 0.0 0.0 0.00 0.28 0.00 69 982.9
20260508172505 25 0 0.0 0.0 0.00 0.28 0.00 70 983.0
20260508172006 25 0 0.0 0.0 0.00 0.28 0.00 69 983.0
20260508171506 25 0 0.0 0.0 0.00 0.28 0.00 69 983.2
20260508171005 25 0 0.0 0.0 0.00 0.28 0.00 69 983.3
20260508170506 25 296 0.0 1.6 0.00 0.28 0.00 69 983.2
20260508165506 25 355 0.0 3.2 0.00 0.28 0.00 69 983.3
20260508165005 25 329 0.0 3.2 0.00 0.28 0.00 69 983.1
20260508164506 25 111 0.0 1.6 0.00 0.28 0.00 69 983.5
20260508164005 25 139 0.0 1.6 0.00 0.28 0.00 69 983.3
20260508163506 25 156 0.0 1.6 0.00 0.28 0.00 69 983.4
20260508163006 25 0 0.0 0.0 0.00 0.28 0.00 69 983.3
20260508162505 25 0 0.0 0.0 0.00 0.28 0.00 70 983.3
20260508162006 25 109 0.0 1.6 0.00 0.28 0.00 70 983.3
20260508161505 25 109 0.0 1.6 0.00 0.28 0.00 70 983.5
20260508161006 25 0 0.0 0.0 0.00 0.28 0.00 70 983.5
20260508160506 25 0 0.0 0.0 0.00 0.28 0.00 69 983.7
20260508160006 25 249 0.0 3.2 0.00 0.28 0.00 70 983.6
20260508155505 25 249 0.0 3.2 0.00 0.28 0.28 70 983.4
20260508155006 25 0 0.0 0.0 0.00 0.28 0.28 70 983.6
20260508154505 25 160 0.0 1.6 0.00 0.28 0.28 70 983.6
20260508154005 25 160 0.0 1.6 0.00 0.28 0.28 70 983.7
20260508153005 25 112 0.0 1.6 0.00 0.28 0.28 69 983.6
20260508152505 26 0 0.0 0.0 0.00 0.28 0.28 69 983.7
20260508152006 26 0 0.0 0.0 0.00 0.28 0.28 69 983.6
20260508151505 26 0 0.0 0.0 0.00 0.28 0.28 69 983.7
20260508151006 26 0 0.0 0.0 0.00 0.28 0.28 70 983.8
20260508150505 26 0 0.0 0.0 0.00 0.28 0.28 70 983.7
20260508150006 26 0 0.0 0.0 0.00 0.28 0.28 70 983.8
20260508145505 26 0 0.0 0.0 0.00 0.28 0.28 70 984.0
20260508145006 26 0 0.0 0.0 0.00 0.28 0.28 70 983.8
20260508143007 26 0 0.0 0.0 0.00 0.28 0.28 69 983.7
20260508142506 26 0 0.0 0.0 0.00 0.28 0.28 69 983.6
20260508141506 26 0 0.0 0.0 0.00 0.28 0.28 69 983.6
20260508141007 26 0 0.0 0.0 0.00 0.28 0.28 68 983.7
20260508140505 26 0 0.0 0.0 0.00 0.28 0.28 67 983.4
20260508140006 26 0 0.0 0.0 0.00 0.28 0.28 67 983.6
20260508135505 26 0 0.0 0.0 0.00 0.28 0.28 67 983.5
20260508135006 26 0 0.0 0.0 0.00 0.28 0.28 67 983.4
20260508134505 26 0 0.0 0.0 0.00 0.28 0.28 67 983.6
20260508134008 26 0 0.0 0.0 0.00 0.28 0.28 67 983.4
20260508133506 26 0 0.0 0.0 0.00 0.28 0.28 67 983.3
20260508133005 26 257 0.0 1.6 0.00 0.28 0.28 67 983.3
20260508132506 26 232 0.0 1.6 0.00 0.28 0.28 67 983.2
20260508132006 26 146 0.0 1.6 0.00 0.28 0.28 67 983.1
20260508131506 26 0 0.0 0.0 0.00 0.28 0.28 67 983.3
20260508130505 26 0 0.0 0.0 0.00 0.28 0.28 67 983.2
20260508130006 26 0 0.0 0.0 0.00 0.28 0.28 67 983.0
20260508125509 26 0 0.0 0.0 0.00 0.28 0.28 66 983.1
20260508125006 26 0 0.0 0.0 0.00 0.38 0.28 67 983.1
20260508124006 26 90 0.0 1.6 0.00 0.38 0.28 67 982.9
20260508123507 26 90 0.0 1.6 0.00 0.38 0.28 66 982.9
20260508122506 26 90 0.0 1.6 0.00 0.38 0.28 66 982.7
20260508121506 26 64 0.0 3.2 0.00 0.38 0.28 65 982.7
20260508121006 27 60 0.0 3.2 0.00 0.38 0.28 64 982.7
20260508120006 27 135 0.0 3.2 0.00 0.38 0.28 64 982.6
20260508115506 27 176 0.0 4.8 0.00 0.38 0.28 64 982.5
20260508115006 27 297 0.0 4.8 0.00 0.38 0.28 64 982.4
20260508114507 27 339 1.6 6.4 0.00 0.38 0.28 61 982.4
20260508113006 27 252 0.0 1.6 0.00 0.38 0.28 61 982.2
20260508112006 27 202 0.0 3.2 0.00 0.38 0.28 61 982.1
20260508111507 27 162 0.0 3.2 0.00 0.38 0.28 61 982.0
20260508111006 27 245 0.0 4.8 0.00 0.38 0.28 61 982.2
20260508110506 27 238 0.0 4.8 0.00 0.38 0.28 61 982.1
20260508110006 27 193 0.0 3.2 0.00 0.38 0.28 61 982.2
20260508104507 27 0 0.0 0.0 0.00 0.38 0.28 61 981.9
20260508103506 27 0 0.0 0.0 0.15 0.38 0.28 61 982.0
20260508102505 27 102 0.0 1.6 0.15 0.38 0.28 61 982.0
20260508102006 28 102 0.0 1.6 0.15 0.38 0.28 60 982.1
20260508101506 28 0 0.0 0.0 0.15 0.38 0.28 60 982.1
20260508100506 28 0 0.0 0.0 0.15 0.38 0.28 59 981.9
20260508100009 28 0 0.0 0.0 0.15 0.38 0.28 59 981.7
20260508095507 28 0 0.0 0.0 0.15 0.38 0.28 59 981.9
20260508093948 28 0 0.0 0.0 0.00 0.23 0.13 59 981.7
20260508093447 29 1 0.0 1.6 0.00 0.23 0.13 57 981.5
20260508092947 29 1 0.0 1.6 0.00 0.23 0.13 56 981.6
20260508092448 29 0 0.0 0.0 0.00 0.38 0.13 55 981.6
20260508091947 29 0 0.0 0.0 0.00 0.38 0.13 54 981.6
20260508091448 29 225 0.0 1.6 0.00 0.38 0.13 54 981.7
20260508090947 30 225 0.0 1.6 0.00 0.38 0.13 53 981.4